Regional Weather Roundup
Issued by NWS

Home | Current Version | Previous Version | Text Only | Print | Product List | Glossary Off
Versions: 1 2 3 4 5 6 7 8 9 10 11 12 13 14 15 16 17 18 19 20 21 22 23 24 25 26 27 28 29 30 31 32 33 34 35 36 37 38 39 40 41 42 43 44 45 46 47 48 49 50

000
ASUS43 KIND 190159
RWRIN

WEATHER ROUNDUP FOR INDIANA
NATIONAL WEATHER SERVICE INDIANAPOLIS IN
900 PM EST WED JAN 18 2017

NOTE: "FAIR" INDICATES FEW OR NO CLOUDS BELOW 12,000 FEET WITH NO
SIGNIFICANT WEATHER AND/OR OBSTRUCTIONS TO VISIBILITY.

* - STATION DOES NOT REPORT WEATHER SUCH AS PRECIPITATION OR FOG.

+ - STATION NOT QUALITY CONTROLLED BY THE NATIONAL WEATHER SERVICE.
    USE DATA WITH CAUTION...ESPECIALLY DEWPOINT AND RELATIVE
    HUMIDITY OBSERVATIONS.

INZ001>003-010>013-019-020-190300-
NORTHWEST INDIANA

CITY           SKY/WX    TMP DP  RH WIND       PRES   REMARKS
GARY /AIRPORT/ CLOUDY    37  32  81 SW10      30.11S
MICHIGAN CITY+ CLOUDY    36  36 100 SW8       30.10S
MONTICELLO +   CLOUDY    36  33  88 SW5       30.12F

$$

LMZ046-743>745-190300-
SOUTHERN LAKE MICHIGAN

STATION/POSITION TIME  TEMP    WIND        PRES    WAVE
                       AIR SEA DIR/SP/G            HT
                 (UTC) (F)     (DEG/KT/KT) (MB)    (FT)

$$

INZ004-005-014>016-021>024-190300-
NORTH CENTRAL INDIANA

CITY           SKY/WX    TMP DP  RH WIND       PRES   REMARKS
ELKHART        CLOUDY    36  32  87 SW10      30.10S
GOSHEN         CLOUDY    35  31  85 SW10      30.11R WCI  27
SOUTH BEND     CLOUDY    35  32  88 SW12      30.11R WCI  27

$$

INZ006>009-017-018-025>027-190300-
NORTHEAST INDIANA

CITY           SKY/WX    TMP DP  RH WIND       PRES   REMARKS
ANGOLA *+      CLOUDY    32  32 100 W13       30.08R WCI  22
FORT WAYNE     DRIZZLE   35  34  96 W10       30.13R FOG     WCI  27
KENDALLVILLE + CLOUDY    33  33 100 W12       30.10R FOG     WCI  24

$$

INZ028-029-035-036-043>045-051>053-190300-
WEST CENTRAL INDIANA

CITY           SKY/WX    TMP DP  RH WIND       PRES   REMARKS
CRAWFORDSVL +  CLOUDY    34  34 100 SW6       30.14R WCI  29
LAFAYETTE      CLOUDY    36  34  92 SW6       30.12F
TERRE HAUTE    CLOUDY    38  33  82 SW5       30.14F

$$

INZ030>032-037>040-046>048-054>057-064-065-190300-
CENTRAL INDIANA

CITY           SKY/WX    TMP DP  RH WIND       PRES   REMARKS
COLUMBUS       CLOUDY    37  37 100 SW6       30.17R
INDIANAPOLIS   CLOUDY    37  34  89 S6        30.13F
-EAGLE CREEK   CLOUDY    38  34  85 S7        30.13S
KOKOMO +       CLOUDY    36  34  92 W7        30.13F
MT COMFORT *+  CLOUDY    36  34  93 W3        30.14S
SHELBYVILLE    CLOUDY    38  35  89 S8        30.14S

$$

INZ033-034-041-042-049-050-058-059-190300-
EAST CENTRAL INDIANA

CITY           SKY/WX    TMP DP  RH WIND       PRES   REMARKS
MUNCIE         CLOUDY    38  35  89 W7        30.14R

$$

INZ060-061-067>069-081>083-085>088-190300-
SOUTHWEST INDIANA

CITY           SKY/WX    TMP DP  RH WIND       PRES   REMARKS
EVANSVILLE     MOCLDY    40  35  83 CALM      30.14F
HUNTINGBURG *+ MOCLDY    38  35  89 E3        30.14F

$$

INZ062-063-066-070>080-084-089>092-190300-
SOUTH CENTRAL AND SOUTHEAST INDIANA

CITY           SKY/WX    TMP DP  RH WIND       PRES   REMARKS
BLOOMINGTON    CLOUDY    38  33  82 CALM      30.13F
MADISON *+     CLOUDY    39  36  87 SW3       30.18R
SEYMOUR +      CLOUDY    41  36  81 CALM      30.16S

$$





USA.gov is the U.S. government's official web portal to all federal, state and local government web resources and services.